Data supplied by UK-AIR on 24/3/2021
All Data GMT hour ending 
Status: R =Ratified P=Provisional,P*=As supplied
,,Hafod-yr-ynys Roadside,,,,,,,,,,,,,,,,,,,,,,,
Date,time,"Nitric oxide",status,unit,"Nitrogen dioxide",status,unit,"Nitrogen oxides as nitrogen dioxide",status,unit
 
01-01-2020,01:00,25.09991,R,ugm-3,28.97335,R,ugm-3,67.45935,R,ugm-3
01-01-2020,02:00,33.78071,R,ugm-3,43.45803,R,ugm-3,95.25440,R,ugm-3
01-01-2020,03:00,20.98273,R,ugm-3,34.19700,R,ugm-3,66.37008,R,ugm-3
01-01-2020,04:00,12.57476,R,ugm-3,23.65106,R,ugm-3,42.93209,R,ugm-3
01-01-2020,05:00,12.94679,R,ugm-3,22.46086,R,ugm-3,42.31234,R,ugm-3
01-01-2020,06:00,21.31757,R,ugm-3,22.18997,R,ugm-3,54.87645,R,ugm-3
01-01-2020,07:00,49.03412,R,ugm-3,34.34293,R,ugm-3,109.52754,R,ugm-3
01-01-2020,08:00,51.37794,R,ugm-3,36.15790,R,ugm-3,114.93630,R,ugm-3
01-01-2020,09:00,56.43760,R,ugm-3,36.17496,R,ugm-3,122.71141,R,ugm-3
01-01-2020,10:00,63.35744,R,ugm-3,46.01659,R,ugm-3,143.16331,R,ugm-3
01-01-2020,11:00,84.89823,R,ugm-3,60.03285,R,ugm-3,190.20831,R,ugm-3
01-01-2020,12:00,141.63346,R,ugm-3,78.84905,R,ugm-3,296.01732,R,ugm-3
01-01-2020,13:00,104.28121,R,ugm-3,67.61064,R,ugm-3,227.50627,R,ugm-3
01-01-2020,14:00,86.87001,R,ugm-3,71.60189,R,ugm-3,204.80072,R,ugm-3
01-01-2020,15:00,79.72695,R,ugm-3,60.86302,R,ugm-3,183.10931,R,ugm-3
01-01-2020,16:00,84.93543,R,ugm-3,58.90532,R,ugm-3,189.13783,R,ugm-3
01-01-2020,17:00,93.56663,R,ugm-3,65.27778,R,ugm-3,208.74461,R,ugm-3
01-01-2020,18:00,107.10867,R,ugm-3,72.45890,R,ugm-3,236.68991,R,ugm-3
01-01-2020,19:00,101.78858,R,ugm-3,68.89726,R,ugm-3,224.97091,R,ugm-3
01-01-2020,20:00,57.33049,R,ugm-3,55.03242,R,ugm-3,142.93794,R,ugm-3
01-01-2020,21:00,24.51706,R,ugm-3,34.69362,R,ugm-3,72.28592,R,ugm-3
01-01-2020,22:00,13.91408,R,ugm-3,23.23136,R,ugm-3,44.56599,R,ugm-3
01-01-2020,23:00,18.97375,R,ugm-3,26.51621,R,ugm-3,55.60889,R,ugm-3
01-01-2020,24:00,15.17900,R,ugm-3,28.50354,R,ugm-3,51.77768,R,ugm-3
02-01-2020,01:00,6.65408,R,ugm-3,15.89101,R,ugm-3,26.09379,R,ugm-3
02-01-2020,02:00,15.14549,R,ugm-3,15.20355,R,ugm-3,38.42631,R,ugm-3
02-01-2020,03:00,3.76154,R,ugm-3,7.93726,R,ugm-3,13.70488,R,ugm-3
02-01-2020,04:00,12.10398,R,ugm-3,16.40802,R,ugm-3,34.96719,R,ugm-3
02-01-2020,05:00,29.94337,R,ugm-3,27.23657,R,ugm-3,73.14910,R,ugm-3
02-01-2020,06:00,86.14306,R,ugm-3,56.73863,R,ugm-3,188.82280,R,ugm-3
02-01-2020,07:00,62.71721,R,ugm-3,53.00948,R,ugm-3,149.17453,R,ugm-3
02-01-2020,08:00,61.89787,R,ugm-3,49.18991,R,ugm-3,144.09865,R,ugm-3
02-01-2020,09:00,80.25866,R,ugm-3,56.39906,R,ugm-3,179.46062,R,ugm-3
02-01-2020,10:00,69.04852,R,ugm-3,60.05202,R,ugm-3,165.92494,R,ugm-3
02-01-2020,11:00,82.19530,R,ugm-3,55.40354,R,ugm-3,181.43458,R,ugm-3
02-01-2020,12:00,78.69446,R,ugm-3,54.90596,R,ugm-3,175.56911,R,ugm-3
02-01-2020,13:00,61.26473,R,ugm-3,65.78313,R,ugm-3,159.72108,R,ugm-3
02-01-2020,14:00,59.06740,R,ugm-3,49.52559,R,ugm-3,140.09434,R,ugm-3
02-01-2020,15:00,,,,,,,,,
02-01-2020,16:00,39.40309,R,ugm-3,31.96382,R,ugm-3,92.38105,R,ugm-3
02-01-2020,17:00,41.37697,R,ugm-3,48.84598,R,ugm-3,112.28979,R,ugm-3
02-01-2020,18:00,46.10683,R,ugm-3,45.48514,R,ugm-3,116.18130,R,ugm-3
02-01-2020,19:00,30.05510,R,ugm-3,40.03695,R,ugm-3,86.12080,R,ugm-3
02-01-2020,20:00,28.23019,R,ugm-3,34.93929,R,ugm-3,78.22498,R,ugm-3
02-01-2020,21:00,15.34412,R,ugm-3,21.30964,R,ugm-3,44.83696,R,ugm-3
02-01-2020,22:00,12.55089,R,ugm-3,21.53182,R,ugm-3,40.77625,R,ugm-3
02-01-2020,23:00,13.74267,R,ugm-3,17.67410,R,ugm-3,38.74590,R,ugm-3
02-01-2020,24:00,14.56201,R,ugm-3,22.79084,R,ugm-3,45.11895,R,ugm-3
03-01-2020,01:00,3.32422,R,ugm-3,7.53491,R,ugm-3,12.63198,R,ugm-3
03-01-2020,02:00,3.02653,R,ugm-3,6.63794,R,ugm-3,11.27855,R,ugm-3
03-01-2020,03:00,3.27461,R,ugm-3,6.70870,R,ugm-3,11.72970,R,ugm-3
03-01-2020,04:00,7.14460,R,ugm-3,12.33532,R,ugm-3,23.29021,R,ugm-3
03-01-2020,05:00,31.96463,R,ugm-3,28.58469,R,ugm-3,77.59644,R,ugm-3
03-01-2020,06:00,190.67145,R,ugm-3,96.58208,R,ugm-3,388.94090,R,ugm-3
03-01-2020,07:00,204.99786,R,ugm-3,97.45430,R,ugm-3,411.77997,R,ugm-3
03-01-2020,08:00,168.00968,R,ugm-3,108.77254,R,ugm-3,366.38379,R,ugm-3
03-01-2020,09:00,215.41706,R,ugm-3,130.76569,R,ugm-3,461.06724,R,ugm-3
03-01-2020,10:00,169.68420,R,ugm-3,87.25702,R,ugm-3,347.43582,R,ugm-3
03-01-2020,11:00,149.70165,R,ugm-3,87.83915,R,ugm-3,317.37848,R,ugm-3
03-01-2020,12:00,227.84569,R,ugm-3,138.15694,R,ugm-3,487.51545,R,ugm-3
03-01-2020,13:00,156.47413,R,ugm-3,100.97061,R,ugm-3,340.89426,R,ugm-3
03-01-2020,14:00,131.28198,R,ugm-3,110.21740,R,ugm-3,311.51363,R,ugm-3
03-01-2020,15:00,143.56176,R,ugm-3,113.38185,R,ugm-3,333.50681,R,ugm-3
03-01-2020,16:00,160.67903,R,ugm-3,117.19308,R,ugm-3,363.56415,R,ugm-3
03-01-2020,17:00,246.04208,R,ugm-3,118.82788,R,ugm-3,496.08715,R,ugm-3
03-01-2020,18:00,195.24846,R,ugm-3,124.18926,R,ugm-3,423.56606,R,ugm-3
03-01-2020,19:00,187.73175,R,ugm-3,114.73662,R,ugm-3,402.58795,R,ugm-3
03-01-2020,20:00,65.86426,R,ugm-3,65.65016,R,ugm-3,166.64062,R,ugm-3
03-01-2020,21:00,57.08236,R,ugm-3,59.03973,R,ugm-3,146.56480,R,ugm-3
03-01-2020,22:00,65.56657,R,ugm-3,59.17031,R,ugm-3,159.70431,R,ugm-3
03-01-2020,23:00,79.44644,R,ugm-3,60.72721,R,ugm-3,182.54338,R,ugm-3
03-01-2020,24:00,59.24062,R,ugm-3,57.87337,R,ugm-3,148.70772,R,ugm-3
04-01-2020,01:00,70.54265,R,ugm-3,48.36598,R,ugm-3,156.52987,R,ugm-3
04-01-2020,02:00,26.76952,R,ugm-3,40.90285,R,ugm-3,81.94888,R,ugm-3
04-01-2020,03:00,20.33740,R,ugm-3,28.92479,R,ugm-3,60.10837,R,ugm-3
04-01-2020,04:00,32.27215,R,ugm-3,38.64936,R,ugm-3,88.13263,R,ugm-3
04-01-2020,05:00,42.71970,R,ugm-3,41.85792,R,ugm-3,107.36055,R,ugm-3
04-01-2020,06:00,134.40532,R,ugm-3,78.38634,R,ugm-3,284.47162,R,ugm-3
04-01-2020,07:00,131.80272,R,ugm-3,88.12839,R,ugm-3,290.22308,R,ugm-3
04-01-2020,08:00,93.17281,R,ugm-3,75.35409,R,ugm-3,218.21708,R,ugm-3
04-01-2020,09:00,80.23421,R,ugm-3,66.88681,R,ugm-3,189.91089,R,ugm-3
04-01-2020,10:00,130.50143,R,ugm-3,106.75780,R,ugm-3,306.85719,R,ugm-3
04-01-2020,11:00,107.30117,R,ugm-3,82.84291,R,ugm-3,247.36908,R,ugm-3
04-01-2020,12:00,141.20924,R,ugm-3,101.61675,R,ugm-3,318.13456,R,ugm-3
04-01-2020,13:00,140.94898,R,ugm-3,114.25176,R,ugm-3,330.37051,R,ugm-3
04-01-2020,14:00,170.24673,R,ugm-3,110.37878,R,ugm-3,371.42013,R,ugm-3
04-01-2020,15:00,113.36150,R,ugm-3,93.11678,R,ugm-3,266.93531,R,ugm-3
04-01-2020,16:00,109.45761,R,ugm-3,99.15904,R,ugm-3,266.99170,R,ugm-3
04-01-2020,17:00,163.59153,R,ugm-3,118.77890,R,ugm-3,369.61575,R,ugm-3
04-01-2020,18:00,185.19305,R,ugm-3,106.06907,R,ugm-3,390.02779,R,ugm-3
04-01-2020,19:00,123.10263,R,ugm-3,97.97236,R,ugm-3,286.72709,R,ugm-3
04-01-2020,20:00,105.70244,R,ugm-3,83.82821,R,ugm-3,245.90302,R,ugm-3
04-01-2020,21:00,94.54847,R,ugm-3,74.37252,R,ugm-3,219.34482,R,ugm-3
04-01-2020,22:00,27.36440,R,ugm-3,49.10659,R,ugm-3,91.06475,R,ugm-3
04-01-2020,23:00,35.17218,R,ugm-3,48.46858,R,ugm-3,102.39851,R,ugm-3
04-01-2020,24:00,14.12836,R,ugm-3,26.04009,R,ugm-3,47.70327,R,ugm-3
05-01-2020,01:00,17.68261,R,ugm-3,32.57564,R,ugm-3,59.68860,R,ugm-3
05-01-2020,02:00,11.49122,R,ugm-3,21.02010,R,ugm-3,38.63972,R,ugm-3
05-01-2020,03:00,4.30921,R,ugm-3,11.99834,R,ugm-3,18.60570,R,ugm-3
05-01-2020,04:00,4.42065,R,ugm-3,11.32004,R,ugm-3,18.09827,R,ugm-3
05-01-2020,05:00,9.65857,R,ugm-3,20.42848,R,ugm-3,35.23808,R,ugm-3
05-01-2020,06:00,12.92762,R,ugm-3,25.16990,R,ugm-3,44.99197,R,ugm-3
05-01-2020,07:00,12.89047,R,ugm-3,16.09315,R,ugm-3,35.85827,R,ugm-3
05-01-2020,08:00,16.49386,R,ugm-3,26.01640,R,ugm-3,51.30664,R,ugm-3
05-01-2020,09:00,20.17155,R,ugm-3,19.70079,R,ugm-3,50.63007,R,ugm-3
05-01-2020,10:00,28.49278,R,ugm-3,31.41107,R,ugm-3,75.09938,R,ugm-3
05-01-2020,11:00,46.76976,R,ugm-3,51.31053,R,ugm-3,123.02317,R,ugm-3
05-01-2020,12:00,74.07379,R,ugm-3,59.45481,R,ugm-3,173.03304,R,ugm-3
05-01-2020,13:00,69.50455,R,ugm-3,67.64489,R,ugm-3,174.21704,R,ugm-3
05-01-2020,14:00,65.08389,R,ugm-3,62.13209,R,ugm-3,161.92600,R,ugm-3
05-01-2020,15:00,73.29368,R,ugm-3,73.73135,R,ugm-3,186.11342,R,ugm-3
05-01-2020,16:00,59.84598,R,ugm-3,68.92307,R,ugm-3,160.68562,R,ugm-3
05-01-2020,17:00,68.27865,R,ugm-3,72.17447,R,ugm-3,176.86694,R,ugm-3
05-01-2020,18:00,91.12488,R,ugm-3,88.33795,R,ugm-3,228.06082,R,ugm-3
05-01-2020,19:00,54.23658,R,ugm-3,60.94804,R,ugm-3,144.10963,R,ugm-3
05-01-2020,20:00,20.69163,R,ugm-3,27.92430,R,ugm-3,59.65101,R,ugm-3
05-01-2020,21:00,12.03606,R,ugm-3,23.83065,R,ugm-3,42.28569,R,ugm-3
05-01-2020,22:00,8.65556,R,ugm-3,18.97821,R,ugm-3,32.24989,R,ugm-3
05-01-2020,23:00,5.49796,R,ugm-3,10.62667,R,ugm-3,19.05675,R,ugm-3
05-01-2020,24:00,5.72085,R,ugm-3,11.75082,R,ugm-3,20.52266,R,ugm-3
06-01-2020,01:00,2.42496,R,ugm-3,4.92594,R,ugm-3,8.64417,R,ugm-3
06-01-2020,02:00,1.78161,R,ugm-3,6.13791,R,ugm-3,8.86967,R,ugm-3
06-01-2020,03:00,1.63314,R,ugm-3,7.92526,R,ugm-3,10.42938,R,ugm-3
06-01-2020,04:00,12.21142,R,ugm-3,10.98570,R,ugm-3,29.70962,R,ugm-3
06-01-2020,05:00,10.50405,R,ugm-3,11.91239,R,ugm-3,28.01837,R,ugm-3
06-01-2020,06:00,40.56865,R,ugm-3,23.48560,R,ugm-3,85.69000,R,ugm-3
06-01-2020,07:00,63.35836,R,ugm-3,50.15974,R,ugm-3,147.30787,R,ugm-3
06-01-2020,08:00,193.08153,R,ugm-3,93.89163,R,ugm-3,389.94585,R,ugm-3
06-01-2020,09:00,100.99478,R,ugm-3,92.74248,R,ugm-3,247.59899,R,ugm-3
06-01-2020,10:00,64.91726,R,ugm-3,53.23783,R,ugm-3,152.77624,R,ugm-3
06-01-2020,11:00,58.71876,R,ugm-3,51.86169,R,ugm-3,141.89587,R,ugm-3
06-01-2020,12:00,75.42131,R,ugm-3,54.04434,R,ugm-3,169.68874,R,ugm-3
06-01-2020,13:00,57.08562,R,ugm-3,57.35368,R,ugm-3,144.88374,R,ugm-3
06-01-2020,14:00,50.21902,R,ugm-3,55.08520,R,ugm-3,132.08662,R,ugm-3
06-01-2020,15:00,65.28843,R,ugm-3,65.07121,R,ugm-3,165.17874,R,ugm-3
06-01-2020,16:00,191.59686,R,ugm-3,106.59747,R,ugm-3,400.37523,R,ugm-3
06-01-2020,17:00,275.10963,R,ugm-3,149.41896,R,ugm-3,571.24785,R,ugm-3
06-01-2020,18:00,202.24938,R,ugm-3,145.00396,R,ugm-3,455.11535,R,ugm-3
06-01-2020,19:00,240.18274,R,ugm-3,128.95242,R,ugm-3,497.22748,R,ugm-3
06-01-2020,20:00,207.44573,R,ugm-3,124.40834,R,ugm-3,442.48735,R,ugm-3
06-01-2020,21:00,216.39087,R,ugm-3,105.33701,R,ugm-3,437.13173,R,ugm-3
06-01-2020,22:00,191.93091,R,ugm-3,86.52315,R,ugm-3,380.81311,R,ugm-3
06-01-2020,23:00,146.35150,R,ugm-3,74.83599,R,ugm-3,299.23848,R,ugm-3
06-01-2020,24:00,87.37292,R,ugm-3,63.90630,R,ugm-3,197.87624,R,ugm-3
07-01-2020,01:00,68.13794,R,ugm-3,41.78224,R,ugm-3,146.25896,R,ugm-3
07-01-2020,02:00,33.47561,R,ugm-3,36.00594,R,ugm-3,87.33449,R,ugm-3
07-01-2020,03:00,51.10345,R,ugm-3,33.30960,R,ugm-3,111.66714,R,ugm-3
07-01-2020,04:00,10.23553,R,ugm-3,20.88928,R,ugm-3,36.58353,R,ugm-3
07-01-2020,05:00,8.93754,R,ugm-3,12.16937,R,ugm-3,25.87341,R,ugm-3
07-01-2020,06:00,58.07548,R,ugm-3,44.20867,R,ugm-3,133.25649,R,ugm-3
07-01-2020,07:00,159.09566,R,ugm-3,72.62545,R,ugm-3,316.56872,R,ugm-3
07-01-2020,08:00,188.39300,R,ugm-3,122.23443,R,ugm-3,411.09966,R,ugm-3
07-01-2020,09:00,244.13210,R,ugm-3,139.13523,R,ugm-3,513.46590,R,ugm-3
07-01-2020,10:00,238.38389,R,ugm-3,122.58295,R,ugm-3,488.09982,R,ugm-3
07-01-2020,11:00,119.78531,R,ugm-3,80.58998,R,ugm-3,264.25822,R,ugm-3
07-01-2020,12:00,77.73065,R,ugm-3,62.99951,R,ugm-3,182.18485,R,ugm-3
07-01-2020,13:00,90.85883,R,ugm-3,57.01856,R,ugm-3,196.33349,R,ugm-3
07-01-2020,14:00,54.62655,R,ugm-3,56.09213,R,ugm-3,139.85167,R,ugm-3
07-01-2020,15:00,111.66364,R,ugm-3,78.72528,R,ugm-3,249.94048,R,ugm-3
07-01-2020,16:00,48.61874,R,ugm-3,56.84861,R,ugm-3,131.39631,R,ugm-3
07-01-2020,17:00,43.20430,R,ugm-3,39.50272,R,ugm-3,105.74839,R,ugm-3
07-01-2020,18:00,46.61614,R,ugm-3,43.96678,R,ugm-3,115.44387,R,ugm-3
07-01-2020,19:00,29.48276,R,ugm-3,31.62478,R,ugm-3,76.83105,R,ugm-3
07-01-2020,20:00,14.61158,R,ugm-3,17.56156,R,ugm-3,39.96567,R,ugm-3
07-01-2020,21:00,17.87508,R,ugm-3,17.96903,R,ugm-3,45.37711,R,ugm-3
07-01-2020,22:00,16.61419,R,ugm-3,12.17981,R,ugm-3,37.65454,R,ugm-3
07-01-2020,23:00,6.34158,R,ugm-3,10.23104,R,ugm-3,19.95465,R,ugm-3
07-01-2020,24:00,5.30319,R,ugm-3,7.14458,R,ugm-3,15.27602,R,ugm-3
08-01-2020,01:00,2.96430,R,ugm-3,6.12624,R,ugm-3,10.67142,R,ugm-3
08-01-2020,02:00,3.55715,R,ugm-3,5.81840,R,ugm-3,11.27263,R,ugm-3
08-01-2020,03:00,6.96609,R,ugm-3,20.09309,R,ugm-3,30.77428,R,ugm-3
08-01-2020,04:00,28.30901,R,ugm-3,29.80919,R,ugm-3,73.21574,R,ugm-3
08-01-2020,05:00,26.75276,R,ugm-3,29.26453,R,ugm-3,70.28485,R,ugm-3
08-01-2020,06:00,104.71371,R,ugm-3,82.98640,R,ugm-3,243.54518,R,ugm-3
08-01-2020,07:00,261.85837,R,ugm-3,155.18828,R,ugm-3,556.69885,R,ugm-3
08-01-2020,08:00,382.43106,R,ugm-3,163.75108,R,ugm-3,750.13719,R,ugm-3
08-01-2020,09:00,335.96574,R,ugm-3,149.88855,R,ugm-3,665.02883,R,ugm-3
08-01-2020,10:00,255.89273,R,ugm-3,123.47219,R,ugm-3,515.83557,R,ugm-3
08-01-2020,11:00,219.02432,R,ugm-3,97.71276,R,ugm-3,433.54537,R,ugm-3
08-01-2020,12:00,161.70227,R,ugm-3,111.43143,R,ugm-3,359.37146,R,ugm-3
08-01-2020,13:00,205.20329,R,ugm-3,107.97025,R,ugm-3,422.61091,R,ugm-3
08-01-2020,14:00,192.90147,R,ugm-3,120.85829,R,ugm-3,416.63642,R,ugm-3
08-01-2020,15:00,248.25967,R,ugm-3,131.34335,R,ugm-3,512.00287,R,ugm-3
08-01-2020,16:00,264.30392,R,ugm-3,118.18424,R,ugm-3,523.44460,R,ugm-3
08-01-2020,17:00,225.43460,R,ugm-3,103.94729,R,ugm-3,449.60886,R,ugm-3
08-01-2020,18:00,244.03555,R,ugm-3,117.41678,R,ugm-3,491.59941,R,ugm-3
08-01-2020,19:00,170.40989,R,ugm-3,101.17992,R,ugm-3,362.47143,R,ugm-3
08-01-2020,20:00,131.68879,R,ugm-3,94.15565,R,ugm-3,296.07564,R,ugm-3
08-01-2020,21:00,50.50417,R,ugm-3,73.33279,R,ugm-3,150.77143,R,ugm-3
08-01-2020,22:00,31.42152,R,ugm-3,44.59475,R,ugm-3,92.77375,R,ugm-3
08-01-2020,23:00,12.33888,R,ugm-3,27.46753,R,ugm-3,46.38688,R,ugm-3
08-01-2020,24:00,4.48350,R,ugm-3,10.82343,R,ugm-3,17.69803,R,ugm-3
09-01-2020,01:00,2.86305,R,ugm-3,9.51151,R,ugm-3,13.90145,R,ugm-3
09-01-2020,02:00,0.83917,R,ugm-3,4.19873,R,ugm-3,5.48544,R,ugm-3
09-01-2020,03:00,2.81368,R,ugm-3,1.65961,R,ugm-3,5.97387,R,ugm-3
09-01-2020,04:00,3.33199,R,ugm-3,0.58310,R,ugm-3,5.69208,R,ugm-3
09-01-2020,05:00,9.44064,R,ugm-3,8.12380,R,ugm-3,22.59925,R,ugm-3
09-01-2020,06:00,25.76740,R,ugm-3,25.47042,R,ugm-3,64.97989,R,ugm-3
09-01-2020,07:00,69.23138,R,ugm-3,65.11631,R,ugm-3,171.26962,R,ugm-3
09-01-2020,08:00,86.89094,R,ugm-3,54.72045,R,ugm-3,187.95136,R,ugm-3
09-01-2020,09:00,120.76619,R,ugm-3,86.07511,R,ugm-3,271.24735,R,ugm-3
09-01-2020,10:00,83.41086,R,ugm-3,72.90594,R,ugm-3,200.80081,R,ugm-3
09-01-2020,11:00,67.56539,R,ugm-3,54.76500,R,ugm-3,158.36382,R,ugm-3
09-01-2020,12:00,122.69134,R,ugm-3,84.75761,R,ugm-3,272.88171,R,ugm-3
09-01-2020,13:00,177.15089,R,ugm-3,116.56102,R,ugm-3,388.18860,R,ugm-3
09-01-2020,14:00,163.85995,R,ugm-3,101.71692,R,ugm-3,352.96533,R,ugm-3
09-01-2020,15:00,240.16256,R,ugm-3,158.63962,R,ugm-3,526.88374,R,ugm-3
09-01-2020,16:00,227.64908,R,ugm-3,126.82340,R,ugm-3,475.88045,R,ugm-3
09-01-2020,17:00,313.46637,R,ugm-3,149.26302,R,ugm-3,629.90476,R,ugm-3
09-01-2020,18:00,279.22090,R,ugm-3,148.00721,R,ugm-3,576.13996,R,ugm-3
09-01-2020,19:00,194.21809,R,ugm-3,108.20056,R,ugm-3,405.99748,R,ugm-3
09-01-2020,20:00,61.41971,R,ugm-3,64.41366,R,ugm-3,158.58925,R,ugm-3
09-01-2020,21:00,53.94124,R,ugm-3,60.38225,R,ugm-3,143.09101,R,ugm-3
09-01-2020,22:00,46.94406,R,ugm-3,52.68230,R,ugm-3,124.66219,R,ugm-3
09-01-2020,23:00,21.28773,R,ugm-3,37.80581,R,ugm-3,70.44654,R,ugm-3
09-01-2020,24:00,20.54728,R,ugm-3,26.82434,R,ugm-3,58.32973,R,ugm-3
10-01-2020,01:00,9.22298,R,ugm-3,18.31664,R,ugm-3,32.45835,R,ugm-3
10-01-2020,02:00,7.25015,R,ugm-3,13.97837,R,ugm-3,25.09512,R,ugm-3
10-01-2020,03:00,9.72852,R,ugm-3,14.44217,R,ugm-3,29.35903,R,ugm-3
10-01-2020,04:00,20.86269,R,ugm-3,26.84176,R,ugm-3,58.83076,R,ugm-3
10-01-2020,05:00,44.68462,R,ugm-3,47.79364,R,ugm-3,116.30910,R,ugm-3
10-01-2020,06:00,232.18985,R,ugm-3,138.85771,R,ugm-3,494.87718,R,ugm-3
10-01-2020,07:00,548.34831,R,ugm-3,192.80666,R,ugm-3,1033.59568,R,ugm-3
10-01-2020,08:00,512.94833,R,ugm-3,170.56080,R,ugm-3,957.07060,R,ugm-3
10-01-2020,09:00,337.42804,R,ugm-3,145.81608,R,ugm-3,663.19853,R,ugm-3
10-01-2020,10:00,279.20487,R,ugm-3,149.26732,R,ugm-3,577.37549,R,ugm-3
10-01-2020,11:00,273.95221,R,ugm-3,128.63848,R,ugm-3,548.69268,R,ugm-3
10-01-2020,12:00,226.49330,R,ugm-3,113.78151,R,ugm-3,461.06640,R,ugm-3
10-01-2020,13:00,150.47767,R,ugm-3,80.72447,R,ugm-3,311.45368,R,ugm-3
10-01-2020,14:00,133.01812,R,ugm-3,92.61867,R,ugm-3,296.57693,R,ugm-3
10-01-2020,15:00,148.29522,R,ugm-3,103.11758,R,ugm-3,330.50042,R,ugm-3
10-01-2020,16:00,150.55165,R,ugm-3,136.73694,R,ugm-3,367.57958,R,ugm-3
10-01-2020,17:00,173.30085,R,ugm-3,123.09975,R,ugm-3,388.82402,R,ugm-3
10-01-2020,18:00,145.55792,R,ugm-3,116.55633,R,ugm-3,339.74203,R,ugm-3
10-01-2020,19:00,61.84825,R,ugm-3,75.17924,R,ugm-3,170.01189,R,ugm-3
10-01-2020,20:00,46.60813,R,ugm-3,43.37917,R,ugm-3,114.84397,R,ugm-3
10-01-2020,21:00,17.16363,R,ugm-3,19.60912,R,ugm-3,45.92632,R,ugm-3
10-01-2020,22:00,11.20814,R,ugm-3,21.69682,R,ugm-3,38.88240,R,ugm-3
10-01-2020,23:00,11.20814,R,ugm-3,11.83534,R,ugm-3,29.02092,R,ugm-3
10-01-2020,24:00,4.40188,R,ugm-3,8.29635,R,ugm-3,15.04580,R,ugm-3
11-01-2020,01:00,5.12499,R,ugm-3,5.51444,R,ugm-3,13.37264,R,ugm-3
11-01-2020,02:00,0.88702,R,ugm-3,1.79527,R,ugm-3,3.15534,R,ugm-3
11-01-2020,03:00,1.18269,R,ugm-3,2.24344,R,ugm-3,4.05687,R,ugm-3
11-01-2020,04:00,1.70012,R,ugm-3,3.64753,R,ugm-3,6.25434,R,ugm-3
11-01-2020,05:00,3.17848,R,ugm-3,2.84572,R,ugm-3,7.71932,R,ugm-3
11-01-2020,06:00,6.24608,R,ugm-3,7.10105,R,ugm-3,16.67823,R,ugm-3
11-01-2020,07:00,11.90081,R,ugm-3,12.06617,R,ugm-3,30.31382,R,ugm-3
11-01-2020,08:00,13.26829,R,ugm-3,20.05521,R,ugm-3,40.39964,R,ugm-3
11-01-2020,09:00,17.66641,R,ugm-3,23.73541,R,ugm-3,50.82354,R,ugm-3
11-01-2020,10:00,33.78055,R,ugm-3,48.72405,R,ugm-3,100.52017,R,ugm-3
11-01-2020,11:00,37.88300,R,ugm-3,42.82813,R,ugm-3,100.91458,R,ugm-3
11-01-2020,12:00,31.67388,R,ugm-3,38.37498,R,ugm-3,86.94093,R,ugm-3
11-01-2020,13:00,28.71716,R,ugm-3,35.07655,R,ugm-3,79.10892,R,ugm-3
11-01-2020,14:00,31.30429,R,ugm-3,35.50461,R,ugm-3,83.50386,R,ugm-3
11-01-2020,15:00,26.01915,R,ugm-3,29.69107,R,ugm-3,69.58655,R,ugm-3
11-01-2020,16:00,24.35600,R,ugm-3,21.19751,R,ugm-3,58.54286,R,ugm-3
11-01-2020,17:00,22.58196,R,ugm-3,22.22730,R,ugm-3,56.85249,R,ugm-3
11-01-2020,18:00,21.14056,R,ugm-3,25.45163,R,ugm-3,57.86671,R,ugm-3
11-01-2020,19:00,16.29893,R,ugm-3,24.19818,R,ugm-3,49.18952,R,ugm-3
11-01-2020,20:00,8.98104,R,ugm-3,12.93697,R,ugm-3,26.70771,R,ugm-3
11-01-2020,21:00,12.01168,R,ugm-3,9.19158,R,ugm-3,27.60924,R,ugm-3
11-01-2020,22:00,6.31999,R,ugm-3,9.69229,R,ugm-3,19.38281,R,ugm-3
11-01-2020,23:00,4.69380,R,ugm-3,11.62231,R,ugm-3,18.81936,R,ugm-3
11-01-2020,24:00,4.39812,R,ugm-3,8.97667,R,ugm-3,15.72036,R,ugm-3
12-01-2020,01:00,7.43473,R,ugm-3,13.08913,R,ugm-3,24.48889,R,ugm-3
12-01-2020,02:00,1.72328,R,ugm-3,5.01984,R,ugm-3,7.66217,R,ugm-3
12-01-2020,03:00,1.36632,R,ugm-3,2.86288,R,ugm-3,4.95787,R,ugm-3
12-01-2020,04:00,2.36336,R,ugm-3,3.02429,R,ugm-3,6.64806,R,ugm-3
12-01-2020,05:00,4.76364,R,ugm-3,5.31589,R,ugm-3,12.62004,R,ugm-3
12-01-2020,06:00,10.22891,R,ugm-3,11.58419,R,ugm-3,27.26830,R,ugm-3
12-01-2020,07:00,9.49036,R,ugm-3,14.57582,R,ugm-3,29.12750,R,ugm-3
12-01-2020,08:00,12.14914,R,ugm-3,26.95021,R,ugm-3,45.57863,R,ugm-3
12-01-2020,09:00,21.08559,R,ugm-3,18.93813,R,ugm-3,51.26891,R,ugm-3
12-01-2020,10:00,36.85362,R,ugm-3,39.04364,R,ugm-3,95.55173,R,ugm-3
12-01-2020,11:00,49.22432,R,ugm-3,59.45678,R,ugm-3,134.93301,R,ugm-3
12-01-2020,12:00,41.91268,R,ugm-3,49.37148,R,ugm-3,113.63670,R,ugm-3
12-01-2020,13:00,75.84903,R,ugm-3,58.18310,R,ugm-3,174.48331,R,ugm-3
12-01-2020,14:00,75.70132,R,ugm-3,58.24056,R,ugm-3,174.31430,R,ugm-3
12-01-2020,15:00,74.88891,R,ugm-3,77.68388,R,ugm-3,192.51194,R,ugm-3
12-01-2020,16:00,131.42487,R,ugm-3,104.06992,R,ugm-3,305.58524,R,ugm-3
12-01-2020,17:00,119.75579,R,ugm-3,93.22913,R,ugm-3,276.85212,R,ugm-3
12-01-2020,18:00,97.67316,R,ugm-3,87.42571,R,ugm-3,237.18914,R,ugm-3
12-01-2020,19:00,50.92298,R,ugm-3,53.07745,R,ugm-3,131.15827,R,ugm-3
12-01-2020,20:00,29.09885,R,ugm-3,40.90569,R,ugm-3,85.52330,R,ugm-3
12-01-2020,21:00,20.08855,R,ugm-3,30.66435,R,ugm-3,61.46635,R,ugm-3
12-01-2020,22:00,18.61145,R,ugm-3,27.35159,R,ugm-3,55.88875,R,ugm-3
12-01-2020,23:00,24.40906,R,ugm-3,31.87084,R,ugm-3,69.29754,R,ugm-3
12-01-2020,24:00,4.28359,R,ugm-3,8.98162,R,ugm-3,15.54969,R,ugm-3
13-01-2020,01:00,4.08315,R,ugm-3,7.86020,R,ugm-3,14.12094,R,ugm-3
13-01-2020,02:00,2.16456,R,ugm-3,4.56775,R,ugm-3,7.88670,R,ugm-3
13-01-2020,03:00,8.81812,R,ugm-3,10.53349,R,ugm-3,24.05442,R,ugm-3
13-01-2020,04:00,9.51915,R,ugm-3,16.50029,R,ugm-3,31.09611,R,ugm-3
13-01-2020,05:00,21.80549,R,ugm-3,23.18059,R,ugm-3,56.61521,R,ugm-3
13-01-2020,06:00,85.30336,R,ugm-3,64.06105,R,ugm-3,194.85771,R,ugm-3
13-01-2020,07:00,267.53231,R,ugm-3,119.21212,R,ugm-3,529.42261,R,ugm-3
13-01-2020,08:00,244.76752,R,ugm-3,117.95150,R,ugm-3,493.25647,R,ugm-3
13-01-2020,09:00,125.37233,R,ugm-3,99.29117,R,ugm-3,291.52607,R,ugm-3
13-01-2020,10:00,73.93942,R,ugm-3,60.86744,R,ugm-3,174.23964,R,ugm-3
13-01-2020,11:00,59.67300,R,ugm-3,64.73436,R,ugm-3,156.23168,R,ugm-3
13-01-2020,12:00,,,,,,,,,
13-01-2020,13:00,,,,,,,,,
13-01-2020,14:00,39.47863,R,ugm-3,41.48698,R,ugm-3,102.02004,R,ugm-3
13-01-2020,15:00,60.65689,R,ugm-3,39.32155,R,ugm-3,132.32749,R,ugm-3
13-01-2020,16:00,56.26628,R,ugm-3,51.74342,R,ugm-3,138.01717,R,ugm-3
13-01-2020,17:00,52.20773,R,ugm-3,39.77071,R,ugm-3,119.82144,R,ugm-3
13-01-2020,18:00,135.55561,R,ugm-3,96.46475,R,ugm-3,304.31378,R,ugm-3
13-01-2020,19:00,54.97492,R,ugm-3,50.73780,R,ugm-3,135.03149,R,ugm-3
13-01-2020,20:00,19.92380,R,ugm-3,20.77046,R,ugm-3,51.31986,R,ugm-3
13-01-2020,21:00,12.61840,R,ugm-3,17.66319,R,ugm-3,37.01114,R,ugm-3
13-01-2020,22:00,9.48225,R,ugm-3,16.16253,R,ugm-3,30.70178,R,ugm-3
13-01-2020,23:00,11.17946,R,ugm-3,19.64420,R,ugm-3,36.78580,R,ugm-3
13-01-2020,24:00,4.05855,R,ugm-3,8.25469,R,ugm-3,14.47772,R,ugm-3
14-01-2020,01:00,3.09734,R,ugm-3,4.78245,R,ugm-3,9.53164,R,ugm-3
14-01-2020,02:00,4.03146,R,ugm-3,6.87761,R,ugm-3,13.05910,R,ugm-3
14-01-2020,03:00,3.02359,R,ugm-3,4.31387,R,ugm-3,8.94999,R,ugm-3
14-01-2020,04:00,4.57226,R,ugm-3,5.14776,R,ugm-3,12.15847,R,ugm-3
14-01-2020,05:00,6.08406,R,ugm-3,12.23001,R,ugm-3,21.55877,R,ugm-3
14-01-2020,06:00,31.63711,R,ugm-3,32.54690,R,ugm-3,81.05647,R,ugm-3
14-01-2020,07:00,84.29189,R,ugm-3,60.50518,R,ugm-3,189.75094,R,ugm-3
14-01-2020,08:00,131.85818,R,ugm-3,116.07949,R,ugm-3,318.25921,R,ugm-3
14-01-2020,09:00,131.12072,R,ugm-3,95.53890,R,ugm-3,296.58787,R,ugm-3
14-01-2020,10:00,114.74906,R,ugm-3,85.85502,R,ugm-3,261.80113,R,ugm-3
14-01-2020,11:00,65.63411,R,ugm-3,69.24329,R,ugm-3,169.88085,R,ugm-3
14-01-2020,12:00,45.02205,R,ugm-3,44.61508,R,ugm-3,113.64792,R,ugm-3
14-01-2020,13:00,42.88341,R,ugm-3,40.80184,R,ugm-3,106.55548,R,ugm-3
14-01-2020,14:00,21.71825,R,ugm-3,21.46855,R,ugm-3,54.76940,R,ugm-3
14-01-2020,15:00,27.83919,R,ugm-3,26.32442,R,ugm-3,69.01058,R,ugm-3
14-01-2020,16:00,29.64597,R,ugm-3,33.12323,R,ugm-3,78.57974,R,ugm-3
14-01-2020,17:00,41.37161,R,ugm-3,39.34852,R,ugm-3,102.78410,R,ugm-3
14-01-2020,18:00,36.09876,R,ugm-3,32.96712,R,ugm-3,88.31778,R,ugm-3
14-01-2020,19:00,21.42327,R,ugm-3,27.04317,R,ugm-3,59.89172,R,ugm-3
14-01-2020,20:00,20.28020,R,ugm-3,23.61724,R,ugm-3,54.71312,R,ugm-3
14-01-2020,21:00,23.41441,R,ugm-3,31.64546,R,ugm-3,67.54706,R,ugm-3
14-01-2020,22:00,22.71383,R,ugm-3,35.92816,R,ugm-3,70.75554,R,ugm-3
14-01-2020,23:00,22.86132,R,ugm-3,38.29131,R,ugm-3,73.34485,R,ugm-3
14-01-2020,24:00,14.34363,R,ugm-3,20.61767,R,ugm-3,42.61093,R,ugm-3
15-01-2020,01:00,6.28911,R,ugm-3,12.62980,R,ugm-3,22.27298,R,ugm-3
15-01-2020,02:00,2.50582,R,ugm-3,10.25652,R,ugm-3,14.09872,R,ugm-3
15-01-2020,03:00,12.30799,R,ugm-3,21.28686,R,ugm-3,40.15885,R,ugm-3
15-01-2020,04:00,12.89759,R,ugm-3,25.44486,R,ugm-3,45.22089,R,ugm-3
15-01-2020,05:00,51.14817,R,ugm-3,46.21257,R,ugm-3,124.63867,R,ugm-3
15-01-2020,06:00,178.83434,R,ugm-3,107.41272,R,ugm-3,381.62156,R,ugm-3
15-01-2020,07:00,303.83045,R,ugm-3,156.93278,R,ugm-3,622.79964,R,ugm-3
15-01-2020,08:00,442.71910,R,ugm-3,180.65163,R,ugm-3,859.47813,R,ugm-3
15-01-2020,09:00,345.58180,R,ugm-3,159.05892,R,ugm-3,688.94363,R,ugm-3
15-01-2020,10:00,311.82696,R,ugm-3,151.92723,R,ugm-3,630.05523,R,ugm-3
15-01-2020,11:00,204.07678,R,ugm-3,120.17227,R,ugm-3,433.08563,R,ugm-3